Tracking 28790 objects as of 19-Apr-2024
HD Live streaming from Space Station
objects crossing your sky now

COSMOS 623

Track COSMOS 623 now!
10-day predictions
COSMOS 623 is classified as:


NORAD ID: 6991
Int'l Code: 1973-104G
Perigee: 1,393.4 km
Apogee: 1,492.1 km
Inclination: 74.0 °
Period: 114.6 minutes
Semi major axis: 7813 km
RCS: 0.6745 m2 (medium)
Launch date: December 19, 1973
Source: Commonwealth of Independent States (former USSR) (CIS)
Launch site: PLESETSK MISSILE AND SPACE COMPLEX (PKMTR)
Your satellite tracking list
Your tracking list is empty




NASA's NSSDC Master Catalog

Two Line Element Set (TLE):
1 06991U 73104G   24109.10475851  .00000009  00000-0  15014-3 0  9990
2 06991  74.0316 340.3897 0063098 202.8949 325.4677 12.56936781309398
Source of the keplerian elements: AFSPC